Location: Caoma
(10.5237°N, 67.1352°W)
Time: 21:19:44
(UTC+00:00)

Cosmos 1346 Rocket - Pass Details

Date: 18 April 2024
Orbit: 508 x 522 km, 81.2° (Epoch: 24 May)

Event Time Altitude Azimuth Distance (km) Brightness Sun altitude
Rises 23:02:14 0° 186° (S) 2,631 6.2 -6.3°
Reaches altitude 10° 23:04:22 10° 186° (S) 1,741 5.3 -6.8°
Maximum altitude 23:08:12 86° 276° (W) 519 2.7 -7.7°
Drops below altitude 10° 23:12:00 10° 4° (N) 1,730 5.5 -8.6°
Sets 23:14:07 0° 5° (N) 2,613 6.4 -9.1°
